7 * 24
多渠道服务支持
STARLINK-2385是美国SpaceX公司星链计划的第一代近地轨道通信卫星,于2021年3月11日发射升空。它属于星链V1.0版本,单星重量约386kg,配备相控阵天线与太阳能电池阵,运行在近地轨道,为全球偏远地区提供高速低延迟卫星互联网接入。作为星链星座组网的组成单元,它支撑起星座的全球连续覆盖能力,退役后可主动离轨减少太空垃圾。
美国
(US)
| 数据来源 | 国际轨道数据 | AOE轨道数据 |
| 星历时间 | 2026-09-02T07:20:15+0800 2天前 查看轨道信息 | 2026-09-01T23:00:00+0800 2天前 查看轨道信息 |
| 半长轴 | 6847.985km | 6847.984km |
| 偏心率 | 0.000111 | 0.0001246 |
| 轨道倾角 | 53.158° | 53.157° |
| 近地点辐角 | 97.104° | 85.940° |
| 升交点赤经 | 129.815° | 131.435° |
| 平近点角 | 263.009° | 157.126° |
| 近地点 | 469.087km | 468.993km |
| 远地点 | 470.609km | 470.701km |
| 周期 | 93.995分钟 | 93.995分钟 |
| 每日圈数 | 15.319996 | 15.319999 |
| 事件ID | 空间交会对象 | 最接近时刻(TCA) | 交会距离 | 交会风险概率(CRP) | 交会风险指数(CRI) | 操作 |
|---|---|---|---|---|---|---|
| CDM_260904-000804-780405-339521 |
STARLINK-2385
(47804)
STARLINK-4534
(53395) | 2026-09-04T 00:08:22+0000 |
0.553 km
远距离 | 1.121939E-4 高风险 | 0.76 | |
| CDM_260903-101204-780406-547821 |
STARLINK-2385
(47804)
STARLINK-35093
(65478) | 2026-09-03T 10:12:37+0000 |
0.728 km
远距离 | 2.612941E-5 中风险 | 0.63 | |
| CDM_260905-005004-780406-410721 |
STARLINK-2385
(47804)
STARLINK-33912
(64107) | 2026-09-05T 00:50:27+0000 |
1.165 km
极远距离 | 1.372636E-5 中风险 | 0.58 | |
| CDM_260904-021804-780406-761322 |
STARLINK-2385
(47804)
STARLINK-36597
(67613) | 2026-09-04T 02:18:44+0000 |
1.715 km
极远距离 | 4.377738E-6 低风险 | 0.48 | |
| CDM_260904-161304-780406-410721 |
STARLINK-2385
(47804)
STARLINK-33912
(64107) | 2026-09-04T 16:13:44+0000 |
1.670 km
极远距离 | 4.14151E-6 低风险 | 0.47 | |
| CDM_260903-084804-780406-767221 |
STARLINK-2385
(47804)
STARLINK-36616
(67672) | 2026-09-03T 08:48:28+0000 |
1.784 km
极远距离 | 3.852986E-6 低风险 | 0.47 | |
| CDM_260904-115804-780405-350822 |
STARLINK-2385
(47804)
STARLINK-4443
(53508) | 2026-09-04T 11:58:17+0000 |
1.855 km
极远距离 | 3.165526E-6 低风险 | 0.45 | |
| CDM_260904-090504-780404-835421 |
STARLINK-2385
(47804)
STARLINK-2674
(48354) | 2026-09-04T 09:05:48+0000 |
1.826 km
极远距离 | 3.018866E-6 低风险 | 0.45 | |
| CDM_260903-055504-780406-759622 |
STARLINK-2385
(47804)
STARLINK-36629
(67596) | 2026-09-03T 05:55:10+0000 |
2.054 km
极远距离 | 2.668094E-6 低风险 | 0.44 | |
| CDM_260903-141604-780406-955722 |
STARLINK-2385
(47804)
STARLINK-37929
(69557) | 2026-09-03T 14:16:24+0000 |
2.176 km
极远距离 | 2.291047E-6 低风险 | 0.42 |